User: anonymous   Login
Location: Mentone
(34.5413°N, 85.5351°W)
Time: 03:42:16
(UTC-05:00)
Language:

A-11 Canister half - Orbit

View from above orbital plane
View from above orbital plane
View from above satellite
View from above satellite

Ground track
Ground track

The orbit data is extracted from the following two-line orbital elements,

1    53U 60009E   18116.86023564 -.00000084 +00000-0 +00000-0 0  9997
2    53 047.2750 152.2999 0099862 287.7957 071.1956 12.17212554573241
Epoch (UTC): 26 April 2018 20:38:44
Eccentricity: 0.0099862
inclination: 47.2750°
perigee height: 1525 km
apogee height: 1684 km
right ascension of ascending node: 152.2999°
argument of perigee: 287.7957°
revolutions per day: 12.17212554
mean anomaly at epoch: 71.1956°
orbit number at epoch: 57324

The dashed part of the orbit path shows where the satellite is in the earth's shadow,  

DLR